Total_Precipitation_Accumulation
0.21 0.27 0.36 0.40 0.32 0.31 0.35 0.42 0.58 0.58 0.76 1.02 1.09 1.02 1.10 1.23 1.07 0.94 0.97 0.94 0.86 0.98 1.17 1.27 1.30 1.29 1.24 1.26 1.30 1.46 1.74 1.91 2.01 2.07 2.02 1.96 1.85 1.75 1.72 1.71 1.67 1.75 1.93 2.00
0.24 0.32 0.39 0.41 0.34 0.28 0.27 0.30 0.37 0.48 0.73 0.85 0.81 0.88 0.98 1.02 1.00 1.02 1.08 1.03 0.96 0.95 1.01 1.15 1.23 1.29 1.31 1.41 1.48 1.54 1.57 1.64 1.79 1.92 1.95 1.90 1.74 1.67 1.73 1.76 1.78 1.81 1.79 1.83
0.38 0.38 0.47 0.52 0.40 0.37 0.32 0.29 0.41 0.65 0.89 0.85 0.85 0.95 0.92 0.94 0.91 1.04 1.09 0.97 0.92 0.93 0.97 1.04 1.07 1.16 1.43 1.48 1.46 1.49 1.57 1.65 1.81 1.86 1.86 1.81 1.67 1.68 1.74 1.76 1.82 1.80 1.72 1.73
0.51 0.66 0.80 0.56 0.37 0.38 0.38 0.42 0.52 0.65 0.73 0.75 0.77 0.87 0.88 0.83 0.83 0.83 0.88 0.83 0.83 0.90 0.97 1.00 0.98 0.99 1.14 1.33 1.44 1.51 1.55 1.63 1.75 1.81 1.91 2.00 1.94 1.82 1.84 1.85 1.78 1.78 1.77 1.78
0.65 0.84 0.71 0.50 0.45 0.48 0.55 0.64 0.67 0.72 0.75 0.77 0.78 0.93 1.07 0.86 0.77 0.75 0.75 0.79 0.89 1.01 0.98 0.98 0.99 1.02 1.14 1.29 1.44 1.59 1.66 1.71 1.74 1.86 2.02 2.04 1.91 1.88 1.92 1.89 1.75 1.71 1.71 1.73
0.78 0.99 0.93 0.73 0.55 0.49 0.63 1.08 0.82 0.76 0.80 0.84 0.90 1.15 1.25 0.94 0.82 0.81 0.84 0.88 0.85 0.85 0.87 0.93 1.04 1.13 1.20 1.38 1.61 1.72 1.75 1.84 1.92 1.97 2.11 2.25 2.29 2.23 2.11 2.05 1.97 1.93 1.85 1.84
0.92 1.06 0.92 0.68 0.56 0.64 1.11 1.39 1.02 0.95 0.97 0.97 1.05 1.04 1.00 0.91 0.83 0.83 0.87 0.93 0.95 0.99 0.99 1.04 1.08 1.25 1.47 1.60 1.70 1.78 1.86 1.94 2.14 2.24 2.36 2.51 2.69 2.59 2.50 2.40 2.36 2.29 2.19 2.09
1.18 1.36 1.35 0.83 0.70 1.04 1.32 1.11 1.13 1.16 1.12 1.13 0.99 0.84 0.83 0.88 0.86 0.83 0.85 0.98 1.08 1.21 1.26 1.20 1.19 1.32 1.51 1.66 1.76 1.93 1.96 2.05 2.13 2.28 2.36 2.52 2.90 2.89 2.92 2.92 2.71 2.58 2.46 2.32
1.48 1.49 1.21 1.03 1.08 1.15 1.24 1.22 1.23 1.09 0.96 0.98 0.94 0.89 0.93 1.03 1.02 0.94 0.95 1.06 1.11 1.25 1.34 1.38 1.47 1.62 1.78 1.84 1.93 2.02 2.16 2.32 2.41 2.49 2.66 2.78 2.93 2.97 3.00 2.95 2.78 2.62 2.47 2.26
1.63 1.50 1.35 1.23 1.13 1.17 1.34 1.29 1.18 1.03 0.99 0.99 0.99 0.91 0.88 0.91 0.98 0.97 0.96 1.08 1.20 1.32 1.54 1.68 1.74 1.86 2.01 2.12 2.23 2.37 2.53 2.61 2.64 2.67 2.70 2.76 2.90 2.91 2.90 2.85 2.70 2.60 2.52 2.34
1.79 1.71 1.67 1.48 1.19 1.10 1.13 1.10 1.01 1.03 1.01 1.00 1.04 0.98 0.90 0.88 0.91 0.98 1.11 1.19 1.29 1.49 1.69 1.75 1.86 1.97 2.10 2.33 2.55 2.63 2.64 2.62 2.58 2.59 2.70 2.77 2.75 2.73 2.78 2.80 2.80 2.79 2.71 2.70
2.05 1.80 1.77 1.67 1.36 1.18 1.06 0.99 0.98 1.11 1.14 1.04 1.05 1.09 1.04 1.05 1.06 1.09 1.18 1.32 1.46 1.62 1.79 1.89 2.03 2.16 2.27 2.48 2.76 2.92 2.82 2.74 2.73 2.76 2.78 2.73 2.69 2.64 2.68 2.59 2.56 2.52 2.56 2.63
1.72 1.58 1.55 1.51 1.43 1.29 1.10 1.03 1.03 1.19 1.24 1.20 1.15 1.14 1.17 1.21 1.22 1.21 1.26 1.39 1.51 1.61 1.77 1.87 1.96 2.13 2.30 2.55 2.75 2.92 2.87 2.81 2.86 2.96 3.02 2.92 2.87 2.80 2.82 2.70 2.53 2.36 2.38 2.48
1.61 1.66 1.74 1.60 1.54 1.41 1.26 1.26 1.31 1.43 1.41 1.39 1.38 1.34 1.37 1.44 1.38 1.38 1.47 1.55 1.56 1.69 1.77 1.88 1.96 2.03 2.15 2.40 2.64 2.77 2.82 2.89 2.87 2.87 2.92 2.85 2.84 2.84 2.83 2.73 2.59 2.39 2.30 2.33
1.64 1.72 1.82 1.72 1.62 1.55 1.40 1.38 1.50 1.55 1.54 1.52 1.53 1.63 1.77 1.81 1.68 1.58 1.56 1.64 1.71 1.80 1.77 1.86 2.01 2.16 2.30 2.48 2.62 2.68 2.68 2.63 2.62 2.64 2.69 2.78 2.78 2.67 2.59 2.54 2.46 2.34 2.18 2.19
1.55 1.60 1.70 1.78 1.78 1.71 1.56 1.57 1.65 1.55 1.54 1.68 1.72 1.75 1.76 1.80 1.86 1.80 1.65 1.65 1.82 1.87 1.85 1.87 1.98 2.13 2.31 2.42 2.48 2.56 2.62 2.68 2.65 2.55 2.53 2.58 2.59 2.54 2.43 2.39 2.39 2.38 2.21 2.19
1.77 1.84 1.86 1.97 2.01 1.78 1.69 1.65 1.64 1.61 1.54 1.65 1.73 1.73 1.72 1.77 1.93 2.02 1.95 1.91 1.93 1.91 1.96 2.01 2.01 2.10 2.27 2.51 2.60 2.51 2.38 2.35 2.49 2.47 2.44 2.52 2.58 2.56 2.50 2.48 2.41 2.33 2.18 2.13
1.76 1.75 1.81 1.96 2.07 1.93 1.87 1.81 1.75 1.79 1.80 1.83 1.89 1.82 1.81 1.87 1.94 1.96 1.96 1.91 1.88 1.83 1.84 1.97 2.01 2.02 2.12 2.47 2.75 2.63 2.42 2.30 2.20 2.24 2.32 2.43 2.52 2.54 2.46 2.44 2.38 2.22 2.06 1.99
1.74 1.72 1.75 1.88 1.91 1.90 1.95 1.98 1.88 1.81 1.83 1.87 2.00 1.95 1.97 2.01 1.99 1.89 1.86 1.88 1.89 1.88 1.86 1.93 2.08 1.98 2.02 2.22 2.45 2.41 2.28 2.20 2.13 2.15 2.30 2.49 2.51 2.39 2.30 2.25 2.26 2.18 2.05 2.00
1.80 1.78 1.80 1.82 1.85 1.87 1.87 1.85 1.87 1.87 1.87 1.91 1.91 1.87 1.96 2.02 2.03 1.90 1.89 1.90 1.89 1.94 1.96 1.95 1.79 1.78 1.91 2.14 2.30 2.20 2.22 2.21 2.14 2.10 2.21 2.38 2.39 2.28 2.07 1.99 2.00 1.99 1.90 1.84
1.91 1.87 1.82 1.84 1.88 1.84 1.84 1.85 1.91 1.94 1.98 1.95 1.91 1.89 2.00 2.07 2.06 2.05 2.08 2.07 1.93 1.89 1.89 1.96 1.74 1.66 1.69 2.01 2.18 2.03 2.06 2.13 2.14 2.14 2.19 2.25 2.20 2.10 1.96 1.90 1.83 1.76 1.73 1.74
1.90 1.90 1.88 1.89 1.91 1.90 1.79 1.80 1.85 1.85 1.87 1.84 1.82 1.84 1.96 2.09 2.13 2.09 1.99 2.06 2.03 2.01 1.82 1.79 1.68 1.71 1.73 1.85 1.88 2.00 2.00 2.06 2.11 2.07 2.07 2.13 2.20 2.12 1.92 1.87 1.86 1.79 1.72 1.71
1.86 1.81 1.81 1.90 1.94 1.87 1.69 1.67 1.68 1.73 1.74 1.72 1.78 1.87 2.00 2.06 2.07 2.12 1.98 1.80 1.82 1.92 1.76 1.68 1.66 1.63 1.59 1.51 1.62 1.85 1.95 2.01 2.02 2.03 2.01 2.01 2.06 2.00 1.89 1.81 1.81 1.76 1.73 1.66
1.80 1.72 1.68 1.76 1.79 1.82 1.86 1.76 1.66 1.70 1.70 1.74 1.81 1.92 2.06 2.03 1.88 1.72 1.62 1.66 1.71 1.65 1.50 1.48 1.41 1.31 1.33 1.31 1.50 1.75 1.89 1.91 1.90 1.94 1.92 1.87 1.85 1.81 1.81 1.79 1.74 1.65 1.59 1.51
1.80 1.70 1.67 1.75 1.83 1.89 1.90 1.85 1.77 1.76 1.77 1.80 1.85 1.89 1.91 1.96 1.94 1.73 1.54 1.50 1.61 1.50 1.36 1.39 1.39 1.35 1.28 1.34 1.49 1.64 1.74 1.77 1.81 1.85 1.73 1.60 1.57 1.61 1.67 1.70 1.68 1.63 1.54 1.40
1.74 1.72 1.79 1.83 1.87 1.89 1.91 1.94 1.97 1.93 1.97 2.00 1.93 1.88 1.84 1.81 1.77 1.68 1.59 1.50 1.53 1.48 1.31 1.31 1.32 1.28 1.26 1.35 1.48 1.60 1.64 1.65 1.64 1.69 1.70 1.64 1.60 1.61 1.67 1.63 1.57 1.53 1.43 1.31
1.68 1.71 1.79 1.83 1.81 1.77 1.82 1.98 2.15 2.17 2.19 2.21 2.18 2.07 1.94 1.82 1.73 1.65 1.59 1.57 1.56 1.50 1.43 1.39 1.36 1.31 1.31 1.38 1.51 1.61 1.67 1.69 1.65 1.60 1.61 1.64 1.66 1.58 1.54 1.51 1.45 1.37 1.26 1.22